Home > Weather > Helena > Past weeks

Flag for USA Weather for the Past 2 Weeks in Helena, Montana, USA

Now
79 °F

Sunny.


Feels Like: 78 °F
Forecast: 49 / 56 °F
Wind: 10 mph from Northeast

Location: Helena Regional Airport

Current Time: May 5, 2016 at 7:49:45 PM

Latest Report: May 5, 2016 at 6:53 PM


Visibility: 10 mi

Pressure: 29.80 "Hg (25.86 "Hg at 1239m altitude)

Humidity: 18%

Dew Point: 32 °F

Location of HelenaLocation

Historic Weather in Helena — Graph

°F

Helena Temperature Yesterday

Maximum temperature yesterday: 83 °F (at 3:53 PM)
Minimum temperature yesterday: 45 °F (at 5:53 AM)
Average temperature yesterday: 65 °F

High & Low Weather Summary for the Past Weeks

 TemperatureHumidityPressure
High83 °F (May 4, 3:53 PM)93% (Apr 23, 11:01 PM)30.42 "Hg (Apr 23, 11:01 PM)
Low35 °F (Apr 28, 6:00 AM)12% (Apr 22, 4:53 PM)29.61 "Hg (Apr 22, 4:53 PM)
Average52 °F55%30.00 "Hg
* Reported Apr 20 6:53 PM — May 5 6:53 PM, Helena, Weather by CustomWeather, © 2016

Note: Actual official high and low records may vary slightly from our data, if they occured in-between our weather recording intervals... More about our weather records

Advertising

Helena Weather History for the Previous 24 Hours

Scroll right to see more
 ConditionsComfort  
Time TempWeatherWind HumidityBarometerVisibility
6:53 PM
Thu, May 5
79 °FSunny.10 mph18%29.80 "Hg10 mi
5:53 PM82 °FPassing clouds.12 mph17%29.80 "Hg10 mi
4:53 PM81 °FSunny.10 mph18%29.80 "Hg10 mi
3:53 PM80 °FSunny.9 mph20%29.80 "Hg10 mi
2:53 PM79 °FSunny.14 mph20%29.83 "Hg10 mi
1:53 PM79 °FSunny.12 mph20%29.84 "Hg10 mi
12:53 PM77 °FSunny.8 mph22%29.86 "Hg10 mi
11:53 AM73 °FSunny.3 mph27%29.89 "Hg10 mi
10:53 AM67 °FSunny.3 mph33%29.92 "Hg10 mi
9:53 AM63 °FSunny.No wind38%29.91 "Hg10 mi
8:53 AM56 °FSunny.No wind51%29.94 "Hg10 mi
7:53 AM53 °FSunny.No wind52%29.92 "Hg10 mi
6:53 AM51 °FClear.No wind54%29.92 "Hg10 mi
5:53 AM50 °FClear.No wind54%29.88 "Hg10 mi
4:53 AM52 °FClear.No wind50%29.87 "Hg10 mi
3:53 AM55 °FClear.No wind47%29.85 "Hg10 mi
2:53 AM56 °FClear.No wind46%29.85 "Hg10 mi
1:53 AM57 °FClear.No wind42%29.87 "Hg10 mi
12:53 AM58 °FPassing clouds.No wind43%29.88 "Hg10 mi
11:53 PM
Wed, May 4
59 °FClear.3 mph41%29.88 "Hg10 mi
10:53 PM63 °FClear.7 mph34%29.87 "Hg10 mi
9:53 PM68 °FClear.3 mph26%29.88 "Hg10 mi
8:53 PM73 °FSunny.3 mph20%29.87 "Hg10 mi
7:53 PM76 °FSunny.8 mph18%29.85 "Hg10 mi
Weather by CustomWeather, © 2016

See weather overviewHow to use our weather pages